Location: Unspecified
(48.8656°N, 0.0000°E)
Time: 08:54:13
(UTC+00:00)

Vanguard 1 Rocket - All Passes

Search period start: 19 June 2019 00:00
Search period end: 29 June 2019 00:00
Orbit: 652 x 4224 km, 34.3° (Epoch: 18 June)

Date Brightness Start Highest point End Pass type
(mag) Time Alt. Az. Time Alt. Az. Time Alt. Az.
19 Jun - 16:20:36 10° SSW 16:31:28 21° SSE 16:38:53 10° ESE daylight
19 Jun - 18:47:02 10° SW 18:57:31 29° S 19:03:51 10° ESE daylight
19 Jun - 21:15:48 10° WSW 21:22:01 22° SSW 21:26:21 10° SSE visible
20 Jun - 15:09:43 10° S 15:19:17 16° SSE 15:26:31 10° ESE daylight
20 Jun - 17:33:39 10° SW 17:45:59 29° S 17:53:27 10° ESE daylight
20 Jun - 20:02:23 10° WSW 20:11:17 29° S 20:16:47 10° SE daylight
20 Jun - 22:32:23 10° WSW 22:34:57 12° SSW 22:37:08 10° S visible
21 Jun - 14:02:48 10° SSE 14:06:53 11° SE 14:10:34 10° SE daylight
21 Jun - 16:20:37 10° SSW 16:34:03 26° SSE 16:42:34 10° ESE daylight
21 Jun - 18:48:39 10° WSW 19:00:10 33° S 19:06:52 10° ESE daylight
21 Jun - 21:18:16 10° WSW 21:24:33 21° SSW 21:28:56 10° SSE visible
22 Jun - 15:08:31 10° SSW 15:21:45 22° SSE 15:30:54 10° ESE daylight
22 Jun - 17:34:47 10° SW 17:48:35 33° S 17:56:35 10° ESE daylight
22 Jun - 20:04:28 10° WSW 20:13:52 29° SSW 20:19:36 10° SE daylight
22 Jun - 22:36:53 10° SW 22:37:17 10° SW 22:37:41 10° SW visible
23 Jun - 13:58:15 10° S 14:09:12 16° SE 14:17:45 10° ESE daylight
23 Jun - 16:21:08 10° SW 16:36:34 31° SSE 16:45:54 10° ESE daylight
23 Jun - 18:50:24 10° WSW 19:02:45 35° S 19:09:47 10° ESE daylight
23 Jun - 21:20:50 10° WSW 21:26:59 20° SSW 21:31:21 10° SSE visible
24 Jun - 12:54:32 10° SE 12:56:35 10° SE 12:58:32 10° SE daylight
24 Jun - 15:08:11 10° SSW 15:24:08 27° SSE 15:34:35 10° ESE daylight
24 Jun - 17:36:07 10° SW 17:51:09 37° S 17:59:36 10° ESE daylight
24 Jun - 20:06:39 10° WSW 20:16:22 29° SSW 20:22:18 10° SE daylight
25 Jun - 13:56:35 10° S 14:11:27 22° SSE 14:22:17 10° ESE daylight
25 Jun - 16:21:58 10° SW 16:39:02 36° SSE 16:49:01 10° ESE daylight
25 Jun - 18:52:16 10° WSW 19:05:17 36° SSW 19:12:37 10° SE daylight
25 Jun - 21:23:34 10° WSW 21:29:19 17° SW 21:33:31 10° S visible
26 Jun - 12:47:30 10° SSE 12:58:40 15° SE 13:07:55 10° ESE daylight
26 Jun - 15:08:24 10° SSW 15:26:30 33° SSE 15:37:55 10° ESE daylight
26 Jun - 17:37:38 10° WSW 17:53:39 40° S 18:02:31 10° ESE daylight
26 Jun - 20:08:54 10° WSW 20:18:47 28° SSW 20:24:52 10° SSE daylight
27 Jun - 13:55:57 10° SSW 14:13:39 27° SSE 14:26:02 10° ESE daylight
27 Jun - 16:23:05 10° SW 16:41:28 41° S 16:52:00 10° ESE daylight
27 Jun - 18:54:12 10° WSW 19:07:44 37° SSW 19:15:22 10° SE daylight
27 Jun - 21:26:34 10° WSW 21:31:32 15° SW 21:35:21 10° S visible
28 Jun - 12:45:16 10° S 13:00:40 21° SE 13:12:49 10° ESE daylight
28 Jun - 15:09:02 10° SW 15:28:48 38° SSE 15:41:00 10° ESE daylight
28 Jun - 17:39:17 10° WSW 17:56:06 42° S 18:05:21 10° ESE daylight
28 Jun - 20:11:14 10° W 20:21:06 26° SSW 20:27:17 10° SSE daylight
